| time (UTC) | temp C | wind direction | speed KPH | gust KPH | rain 1hr cm | rain 24hr cm | rain mn cm | humidity % | barometer mb |
| 20260506113021 | 17 | 254 | 0.0 | 3.2 | 0.00 | 0.00 | 0.00 | 82 | 1014.4 |
| 20260506111516 | 17 | 234 | 0.0 | 4.8 | 0.00 | 0.00 | 0.00 | 82 | 1014.1 |
| 20260506110020 | 16 | 248 | 0.0 | 1.6 | 0.00 | 0.00 | 0.00 | 83 | 1013.8 |
| 20260506104525 | 16 | 203 | 0.0 | 1.6 | 0.00 | 0.00 | 0.00 | 82 | 1013.4 |
| 20260506103012 | 16 | 169 | 0.0 | 3.2 | 0.00 | 0.00 | 0.00 | 82 | 1013.2 |
| 20260506101513 | 16 | 246 | 0.0 | 4.8 | 0.00 | 0.00 | 0.00 | 82 | 1013.2 |
| 20260506100015 | 17 | 226 | 0.0 | 3.2 | 0.00 | 0.00 | 0.00 | 81 | 1013.2 |
| 20260506094522 | 17 | 192 | 0.0 | 6.4 | 0.00 | 0.00 | 0.00 | 81 | 1013.1 |
| 20260506093024 | 17 | 247 | 0.0 | 4.8 | 0.00 | 0.00 | 0.00 | 80 | 1013.0 |
| 20260506091508 | 17 | 234 | 0.0 | 8.0 | 0.00 | 0.00 | 0.00 | 79 | 1013.1 |
| 20260506090021 | 17 | 175 | 0.0 | 11.3 | 0.00 | 0.00 | 0.00 | 78 | 1013.1 |
| 20260506084520 | 17 | 160 | 1.6 | 8.0 | 0.00 | 0.00 | 0.00 | 78 | 1013.4 |
| 20260506083021 | 17 | 234 | 1.6 | 8.0 | 0.00 | 0.00 | 0.00 | 77 | 1013.8 |
| 20260506081526 | 18 | 218 | 0.0 | 9.7 | 0.00 | 0.00 | 0.00 | 76 | 1013.7 |
| 20260506073020 | 17 | 233 | 1.6 | 9.7 | 0.00 | 0.00 | 0.00 | 77 | 1013.8 |
| 20260506071525 | 17 | 175 | 1.6 | 14.5 | 0.00 | 0.00 | 0.00 | 77 | 1013.6 |
| 20260506061524 | 17 | 199 | 3.2 | 12.9 | 0.00 | 0.00 | 0.00 | 76 | 1013.8 |
| 20260506044528 | 17 | 234 | 0.0 | 3.2 | 0.00 | 0.00 | 0.00 | 72 | 1014.3 |
| 20260506043003 | 17 | 207 | 0.0 | 1.6 | 0.00 | 0.00 | 0.00 | 70 | 1014.2 |
| 20260506041502 | 18 | 207 | 0.0 | 1.6 | 0.00 | 0.00 | 0.00 | 68 | 1013.8 |
| 20260506040003 | 18 | 207 | 0.0 | 3.2 | 0.00 | 0.00 | 0.00 | 67 | 1013.9 |
| 20260506034510 | 18 | 187 | 0.0 | 3.2 | 0.00 | 0.00 | 0.00 | 65 | 1013.8 |
| 20260506033005 | 19 | 198 | 0.0 | 4.8 | 0.00 | 0.00 | 0.00 | 64 | 1013.8 |
| 20260506031506 | 19 | 271 | 0.0 | 4.8 | 0.00 | 0.00 | 0.00 | 64 | 1013.9 |
| 20260506030007 | 19 | 209 | 0.0 | 4.8 | 0.00 | 0.00 | 0.00 | 65 | 1014.1 |
| 20260506024510 | 19 | 206 | 0.0 | 6.4 | 0.00 | 0.00 | 0.00 | 67 | 1014.1 |
| 20260506023011 | 19 | 190 | 0.0 | 1.6 | 0.00 | 0.00 | 0.00 | 67 | 1013.7 |
| 20260506021506 | 20 | 168 | 0.0 | 1.6 | 0.00 | 0.00 | 0.00 | 65 | 1013.3 |
| 20260506020006 | 20 | 168 | 0.0 | 1.6 | 0.00 | 0.00 | 0.00 | 63 | 1013.3 |
| 20260506014504 | 20 | 192 | 0.0 | 1.6 | 0.00 | 0.00 | 0.00 | 63 | 1013.5 |
| 20260506013008 | 21 | 192 | 0.0 | 1.6 | 0.00 | 0.00 | 0.00 | 63 | 1013.6 |
| 20260506011510 | 21 | 192 | 0.0 | 1.6 | 0.00 | 0.00 | 0.00 | 62 | 1013.5 |
| 20260506010011 | 21 | 192 | 0.0 | 0.0 | 0.00 | 0.00 | 0.00 | 58 | 1013.5 |
| 20260506004512 | 22 | 192 | 0.0 | 1.6 | 0.00 | 0.00 | 0.00 | 56 | 1013.4 |
| 20260506003005 | 22 | 205 | 0.0 | 3.2 | 0.00 | 0.00 | 0.00 | 52 | 1013.4 |
| 20260506001506 | 22 | 209 | 0.0 | 4.8 | 0.00 | 0.00 | 0.00 | 51 | 1013.4 |
| 20260506000018 | 23 | 118 | 0.0 | 6.4 | 0.00 | 0.00 | 0.00 | 50 | 1013.4 |
| 20260505234512 | 23 | 182 | 1.6 | 8.0 | 0.00 | 0.00 | 0.00 | 49 | 1013.4 |
| 20260505233018 | 24 | 157 | 0.0 | 4.8 | 0.00 | 0.00 | 0.00 | 47 | 1013.1 |
| 20260505231506 | 25 | 212 | 0.0 | 12.9 | 0.00 | 0.00 | 0.00 | 45 | 1013.2 |
| 20260505230032 | 25 | 147 | 1.6 | 9.7 | 0.00 | 0.00 | 0.00 | 43 | 1013.2 |
| 20260505224516 | 25 | 227 | 4.8 | 14.5 | 0.00 | 0.00 | 0.00 | 43 | 1013.3 |
| 20260505223016 | 25 | 241 | 3.2 | 16.1 | 0.00 | 0.00 | 0.00 | 41 | 1013.1 |
| 20260505221516 | 26 | 338 | 1.6 | 16.1 | 0.00 | 0.00 | 0.00 | 41 | 1013.3 |
| 20260505220007 | 26 | 102 | 3.2 | 16.1 | 0.00 | 0.00 | 0.00 | 41 | 1013.3 |
| 20260505214514 | 26 | 331 | 3.2 | 20.9 | 0.00 | 0.00 | 0.00 | 40 | 1013.4 |
| 20260505213015 | 26 | 163 | 3.2 | 12.9 | 0.00 | 0.00 | 0.00 | 42 | 1013.5 |
| 20260505211518 | 26 | 126 | 4.8 | 12.9 | 0.00 | 0.00 | 0.00 | 40 | 1013.6 |
| 20260505210020 | 26 | 210 | 6.4 | 20.9 | 0.00 | 0.00 | 0.00 | 39 | 1013.6 |
| 20260505204522 | 26 | 186 | 3.2 | 9.7 | 0.00 | 0.00 | 0.00 | 42 | 1013.7 |
| 20260505203015 | 26 | 132 | 4.8 | 12.9 | 0.00 | 0.00 | 0.00 | 42 | 1014.0 |
| 20260505201521 | 26 | 168 | 3.2 | 11.3 | 0.00 | 0.00 | 0.00 | 39 | 1014.0 |
| 20260505200030 | 26 | 63 | 1.6 | 14.5 | 0.00 | 0.00 | 0.00 | 42 | 1014.3 |
| 20260505194523 | 27 | 314 | 1.6 | 14.5 | 0.00 | 0.00 | 0.00 | 37 | 1014.5 |
| 20260505193011 | 27 | 199 | 6.4 | 20.9 | 0.00 | 0.00 | 0.00 | 37 | 1015.0 |
| 20260505191515 | 26 | 234 | 3.2 | 24.1 | 0.00 | 0.00 | 0.00 | 38 | 1015.1 |
| 20260505190005 | 27 | 250 | 3.2 | 11.3 | 0.00 | 0.00 | 0.00 | 38 | 1015.3 |
| 20260505184504 | 26 | 265 | 3.2 | 17.7 | 0.00 | 0.00 | 0.00 | 40 | 1015.3 |
| 20260505183012 | 26 | 147 | 1.6 | 11.3 | 0.00 | 0.00 | 0.00 | 38 | 1015.4 |
| 20260505181516 | 26 | 214 | 3.2 | 16.1 | 0.00 | 0.00 | 0.00 | 37 | 1015.7 |
| 20260505180019 | 26 | 299 | 3.2 | 17.7 | 0.00 | 0.00 | 0.00 | 40 | 1016.1 |
| 20260505174508 | 26 | 238 | 3.2 | 16.1 | 0.00 | 0.00 | 0.00 | 37 | 1016.4 |
| 20260505173025 | 26 | 248 | 3.2 | 16.1 | 0.00 | 0.00 | 0.00 | 41 | 1016.3 |
| 20260505171518 | 26 | 103 | 3.2 | 12.9 | 0.00 | 0.00 | 0.00 | 41 | 1016.3 |
| 20260505170025 | 25 | 211 | 3.2 | 12.9 | 0.00 | 0.00 | 0.00 | 38 | 1016.2 |
| 20260505164543 | 25 | 249 | 4.8 | 14.5 | 0.00 | 0.00 | 0.00 | 41 | 1016.3 |
| 20260505163012 | 25 | 248 | 3.2 | 14.5 | 0.00 | 0.00 | 0.00 | 39 | 1016.7 |
| 20260505161510 | 24 | 201 | 3.2 | 16.1 | 0.00 | 0.00 | 0.00 | 42 | 1016.6 |
| 20260505153031 | 23 | 263 | 1.6 | 12.9 | 0.00 | 0.00 | 0.00 | 54 | 1017.0 |
| 20260505151508 | 22 | 244 | 3.2 | 8.0 | 0.00 | 0.00 | 0.00 | 57 | 1017.3 |
| 20260505124518 | 13 | 217 | 3.2 | 11.3 | 0.00 | 0.00 | 0.00 | 92 | 1016.4 |
| 20260505123019 | 12 | 159 | 1.6 | 6.4 | 0.00 | 0.00 | 0.00 | 92 | 1016.4 |
| 20260505121522 | 11 | 152 | 0.0 | 4.8 | 0.00 | 0.00 | 0.00 | 92 | 1016.4 |
| 20260505120026 | 11 | 214 | 0.0 | 0.0 | 0.00 | 0.00 | 0.00 | 91 | 1016.3 |
| 20260505114533 | 11 | 214 | 0.0 | 0.0 | 0.00 | 0.00 | 0.00 | 90 | 1015.9 |